| time (UTC) | temp F | wind direction | speed MPH | gust MPH | rain 1hr in | rain 24hr in | rain mn in | humidity % | barometer mb |
| 20260506040924 | 61 | 175 | 0.0 | 2.0 | 0.00 | 0.00 | 0.00 | 78 | 1011.3 |
| 20260506040421 | 62 | 91 | 0.0 | 3.0 | 0.00 | 0.00 | 0.00 | 77 | 1011.2 |
| 20260506035917 | 62 | 64 | 1.0 | 3.0 | 0.00 | 0.00 | 0.00 | 77 | 1011.3 |
| 20260506035415 | 62 | 122 | 0.0 | 2.0 | 0.00 | 0.00 | 0.00 | 77 | 1011.2 |
| 20260506034911 | 64 | 284 | 2.0 | 6.0 | 0.00 | 0.00 | 0.00 | 74 | 1011.3 |
| 20260506034408 | 62 | 274 | 3.0 | 3.0 | 0.00 | 0.00 | 0.00 | 76 | 1011.3 |
| 20260506033905 | 63 | 226 | 2.0 | 4.0 | 0.00 | 0.00 | 0.00 | 76 | 1011.4 |
| 20260506033403 | 63 | 162 | 0.0 | 3.0 | 0.00 | 0.00 | 0.00 | 74 | 1011.4 |
| 20260506032859 | 63 | 321 | 2.0 | 3.0 | 0.00 | 0.00 | 0.00 | 75 | 1011.4 |
| 20260506032356 | 62 | 150 | 0.0 | 4.0 | 0.00 | 0.00 | 0.00 | 75 | 1011.2 |
| 20260506031853 | 62 | 79 | 0.0 | 1.0 | 0.00 | 0.00 | 0.00 | 75 | 1011.2 |
| 20260506031350 | 63 | 254 | 2.0 | 6.0 | 0.00 | 0.00 | 0.00 | 75 | 1011.4 |
| 20260506030848 | 63 | 251 | 1.0 | 5.0 | 0.00 | 0.00 | 0.00 | 74 | 1011.3 |
| 20260506030346 | 63 | 248 | 1.0 | 4.0 | 0.00 | 0.00 | 0.00 | 73 | 1011.5 |
| 20260506025842 | 63 | 230 | 4.0 | 9.0 | 0.00 | 0.00 | 0.00 | 73 | 1011.3 |
| 20260506025339 | 63 | 307 | 1.0 | 4.0 | 0.00 | 0.00 | 0.00 | 73 | 1011.3 |
| 20260506024836 | 64 | 317 | 0.0 | 5.0 | 0.00 | 0.00 | 0.00 | 72 | 1011.2 |
| 20260506024333 | 63 | 358 | 0.0 | 5.0 | 0.00 | 0.00 | 0.00 | 73 | 1011.0 |
| 20260506023829 | 63 | 213 | 4.0 | 7.0 | 0.00 | 0.00 | 0.00 | 73 | 1011.3 |
| 20260506023326 | 63 | 178 | 0.0 | 2.0 | 0.00 | 0.00 | 0.00 | 74 | 1010.8 |
| 20260506022822 | 63 | 262 | 0.0 | 3.0 | 0.00 | 0.00 | 0.00 | 72 | 1011.0 |
| 20260506022320 | 62 | 221 | 0.0 | 4.0 | 0.00 | 0.00 | 0.00 | 74 | 1011.2 |
| 20260506021819 | 63 | 137 | 0.0 | 1.0 | 0.00 | 0.00 | 0.00 | 73 | 1011.0 |
| 20260506021315 | 63 | 295 | 0.0 | 2.0 | 0.00 | 0.00 | 0.00 | 73 | 1011.2 |
| 20260506020811 | 63 | 162 | 0.0 | 1.0 | 0.00 | 0.00 | 0.00 | 74 | 1011.0 |
| 20260506020309 | 63 | 133 | 1.0 | 3.0 | 0.00 | 0.00 | 0.00 | 74 | 1010.9 |
| 20260506015807 | 63 | 83 | 0.0 | 3.0 | 0.00 | 0.00 | 0.00 | 73 | 1011.2 |
| 20260506015306 | 63 | 151 | 1.0 | 3.0 | 0.00 | 0.00 | 0.00 | 73 | 1011.2 |
| 20260506014801 | 64 | 137 | 0.0 | 3.0 | 0.00 | 0.00 | 0.00 | 72 | 1010.9 |
| 20260506014258 | 64 | 166 | 1.0 | 2.0 | 0.00 | 0.00 | 0.00 | 70 | 1010.9 |
| 20260506013754 | 65 | 36 | 0.0 | 2.0 | 0.00 | 0.00 | 0.00 | 68 | 1010.8 |
| 20260506013252 | 65 | 304 | 6.0 | 8.0 | 0.00 | 0.00 | 0.00 | 68 | 1010.8 |
| 20260506012748 | 65 | 251 | 2.0 | 5.0 | 0.00 | 0.00 | 0.00 | 69 | 1010.5 |
| 20260506012245 | 66 | 285 | 2.0 | 6.0 | 0.00 | 0.00 | 0.00 | 67 | 1010.8 |
| 20260506011742 | 66 | 293 | 3.0 | 5.0 | 0.00 | 0.00 | 0.00 | 68 | 1010.7 |
| 20260506011239 | 66 | 30 | 2.0 | 4.0 | 0.00 | 0.00 | 0.00 | 67 | 1010.6 |
| 20260506010737 | 66 | 20 | 2.0 | 3.0 | 0.00 | 0.00 | 0.00 | 68 | 1010.5 |
| 20260506010234 | 66 | 246 | 1.0 | 5.0 | 0.00 | 0.00 | 0.00 | 66 | 1010.5 |
| 20260506005731 | 67 | 280 | 5.0 | 9.0 | 0.00 | 0.00 | 0.00 | 65 | 1010.5 |
| 20260506005228 | 66 | 292 | 3.0 | 5.0 | 0.00 | 0.00 | 0.00 | 66 | 1010.3 |
| 20260506004724 | 66 | 238 | 1.0 | 5.0 | 0.00 | 0.00 | 0.00 | 66 | 1010.3 |
| 20260506004222 | 67 | 347 | 2.0 | 4.0 | 0.00 | 0.00 | 0.00 | 66 | 1010.4 |
| 20260506003717 | 67 | 257 | 4.0 | 9.0 | 0.00 | 0.00 | 0.00 | 65 | 1010.1 |
| 20260506003214 | 67 | 256 | 3.0 | 8.0 | 0.00 | 0.00 | 0.00 | 65 | 1010.1 |
| 20260506002710 | 68 | 270 | 2.0 | 6.0 | 0.00 | 0.00 | 0.00 | 64 | 1010.3 |
| 20260506002206 | 68 | 322 | 2.0 | 6.0 | 0.00 | 0.00 | 0.00 | 65 | 1010.0 |
| 20260506001702 | 68 | 196 | 1.0 | 6.0 | 0.00 | 0.00 | 0.00 | 64 | 1009.9 |
| 20260506001200 | 68 | 245 | 2.0 | 3.0 | 0.00 | 0.00 | 0.00 | 64 | 1009.8 |
| 20260506000656 | 68 | 274 | 4.0 | 9.0 | 0.00 | 0.00 | 0.00 | 63 | 1009.6 |
| 20260506000154 | 69 | 296 | 4.0 | 9.0 | 0.00 | 0.00 | 0.00 | 62 | 1009.4 |
| 20260505235652 | 69 | 262 | 2.0 | 8.0 | 0.00 | 0.00 | 0.00 | 62 | 1009.5 |
| 20260505235149 | 69 | 282 | 4.0 | 10.0 | 0.00 | 0.00 | 0.00 | 62 | 1009.5 |
| 20260505234646 | 69 | 296 | 3.0 | 9.0 | 0.00 | 0.00 | 0.00 | 62 | 1009.5 |
| 20260505234142 | 69 | 239 | 4.0 | 11.0 | 0.00 | 0.00 | 0.00 | 62 | 1009.2 |
| 20260505233639 | 69 | 294 | 6.0 | 8.0 | 0.00 | 0.00 | 0.00 | 61 | 1009.4 |
| 20260505233137 | 70 | 312 | 6.0 | 8.0 | 0.00 | 0.00 | 0.00 | 61 | 1009.2 |
| 20260505232635 | 70 | 283 | 6.0 | 13.0 | 0.00 | 0.00 | 0.00 | 60 | 1009.2 |
| 20260505232132 | 70 | 273 | 2.0 | 6.0 | 0.00 | 0.00 | 0.00 | 60 | 1009.1 |
| 20260505231629 | 70 | 301 | 2.0 | 6.0 | 0.00 | 0.00 | 0.00 | 60 | 1008.9 |
| 20260505231127 | 71 | 255 | 2.0 | 7.0 | 0.00 | 0.00 | 0.00 | 60 | 1009.2 |
| 20260505230625 | 71 | 40 | 2.0 | 6.0 | 0.00 | 0.00 | 0.00 | 60 | 1009.0 |
| 20260505230121 | 71 | 18 | 4.0 | 7.0 | 0.00 | 0.00 | 0.00 | 59 | 1008.9 |
| 20260505225618 | 71 | 295 | 3.0 | 12.0 | 0.00 | 0.00 | 0.00 | 59 | 1008.9 |
| 20260505225114 | 72 | 324 | 5.0 | 12.0 | 0.00 | 0.00 | 0.00 | 59 | 1008.7 |
| 20260505224611 | 72 | 130 | 3.0 | 16.0 | 0.00 | 0.00 | 0.00 | 60 | 1008.6 |
| 20260505224108 | 72 | 258 | 9.0 | 13.0 | 0.00 | 0.00 | 0.00 | 59 | 1008.6 |
| 20260505223605 | 72 | 273 | 0.0 | 16.0 | 0.00 | 0.00 | 0.00 | 59 | 1008.5 |
| 20260505223101 | 72 | 283 | 5.0 | 17.0 | 0.00 | 0.00 | 0.00 | 58 | 1008.5 |
| 20260505222558 | 72 | 268 | 4.0 | 14.0 | 0.00 | 0.00 | 0.00 | 58 | 1008.6 |
| 20260505222054 | 73 | 296 | 6.0 | 14.0 | 0.00 | 0.00 | 0.00 | 58 | 1008.3 |
| 20260505221551 | 73 | 304 | 3.0 | 14.0 | 0.00 | 0.00 | 0.00 | 58 | 1008.2 |
| 20260505221047 | 73 | 48 | 1.0 | 10.0 | 0.00 | 0.00 | 0.00 | 58 | 1008.1 |
| 20260505220545 | 73 | 276 | 10.0 | 15.0 | 0.00 | 0.00 | 0.00 | 57 | 1008.2 |
| 20260505220043 | 74 | 243 | 8.0 | 13.0 | 0.00 | 0.00 | 0.00 | 56 | 1008.3 |
| 20260505215541 | 73 | 297 | 3.0 | 9.0 | 0.00 | 0.00 | 0.00 | 56 | 1008.5 |
| 20260505215038 | 74 | 260 | 5.0 | 13.0 | 0.00 | 0.00 | 0.00 | 55 | 1008.7 |
| 20260505214536 | 75 | 269 | 2.0 | 10.0 | 0.00 | 0.00 | 0.00 | 56 | 1008.4 |
| 20260505214033 | 75 | 304 | 4.0 | 8.0 | 0.00 | 0.00 | 0.00 | 55 | 1008.6 |
| 20260505213531 | 75 | 271 | 16.0 | 16.0 | 0.00 | 0.00 | 0.00 | 54 | 1008.5 |
| 20260505213026 | 75 | 11 | 2.0 | 15.0 | 0.00 | 0.00 | 0.00 | 55 | 1008.4 |
| 20260505212523 | 76 | 341 | 2.0 | 9.0 | 0.00 | 0.00 | 0.00 | 53 | 1008.4 |
| 20260505212020 | 76 | 311 | 4.0 | 17.0 | 0.00 | 0.00 | 0.00 | 53 | 1008.3 |
| 20260505211518 | 76 | 268 | 5.0 | 11.0 | 0.00 | 0.00 | 0.00 | 52 | 1008.2 |
| 20260505211014 | 76 | 324 | 4.0 | 8.0 | 0.00 | 0.00 | 0.00 | 53 | 1008.2 |
| 20260505210511 | 77 | 278 | 8.0 | 11.0 | 0.00 | 0.00 | 0.00 | 51 | 1008.5 |
| 20260505210008 | 77 | 272 | 4.0 | 11.0 | 0.00 | 0.00 | 0.00 | 51 | 1008.2 |
| 20260505205506 | 78 | 354 | 7.0 | 9.0 | 0.00 | 0.00 | 0.00 | 50 | 1008.3 |
| 20260505205003 | 77 | 298 | 4.0 | 12.0 | 0.00 | 0.00 | 0.00 | 50 | 1008.4 |
| 20260505204501 | 77 | 233 | 4.0 | 13.0 | 0.00 | 0.00 | 0.00 | 51 | 1008.1 |
| 20260505203957 | 78 | 302 | 5.0 | 15.0 | 0.00 | 0.00 | 0.00 | 49 | 1008.1 |
| 20260505203454 | 78 | 271 | 3.0 | 14.0 | 0.00 | 0.00 | 0.00 | 50 | 1008.2 |
| 20260505202950 | 78 | 224 | 3.0 | 17.0 | 0.00 | 0.00 | 0.00 | 48 | 1008.1 |
| 20260505202447 | 78 | 287 | 4.0 | 12.0 | 0.00 | 0.00 | 0.00 | 47 | 1008.1 |
| 20260505201943 | 78 | 341 | 7.0 | 19.0 | 0.00 | 0.00 | 0.00 | 46 | 1008.1 |
| 20260505201440 | 78 | 327 | 16.0 | 18.0 | 0.00 | 0.00 | 0.00 | 46 | 1008.1 |
| 20260505200938 | 79 | 283 | 4.0 | 11.0 | 0.00 | 0.00 | 0.00 | 47 | 1008.1 |
| 20260505200436 | 79 | 320 | 7.0 | 17.0 | 0.00 | 0.00 | 0.00 | 47 | 1008.4 |
| 20260505195931 | 79 | 321 | 10.0 | 20.0 | 0.00 | 0.00 | 0.00 | 46 | 1008.2 |
| 20260505195428 | 79 | 281 | 3.0 | 14.0 | 0.00 | 0.00 | 0.00 | 48 | 1008.2 |
| 20260505194926 | 79 | 315 | 7.0 | 16.0 | 0.00 | 0.00 | 0.00 | 47 | 1008.3 |
| 20260505194423 | 79 | 243 | 4.0 | 12.0 | 0.00 | 0.00 | 0.00 | 50 | 1008.1 |
| 20260505193923 | 79 | 253 | 9.0 | 29.0 | 0.00 | 0.00 | 0.00 | 46 | 1008.5 |
| 20260505193421 | 79 | 300 | 5.0 | 14.0 | 0.00 | 0.00 | 0.00 | 46 | 1008.0 |
| 20260505192918 | 80 | 250 | 11.0 | 19.0 | 0.00 | 0.00 | 0.00 | 44 | 1008.3 |
| 20260505192416 | 80 | 288 | 5.0 | 16.0 | 0.00 | 0.00 | 0.00 | 45 | 1008.4 |
| 20260505191914 | 80 | 57 | 4.0 | 17.0 | 0.00 | 0.00 | 0.00 | 47 | 1008.4 |
| 20260505191412 | 80 | 300 | 28.0 | 28.0 | 0.00 | 0.00 | 0.00 | 44 | 1008.1 |
| 20260505190909 | 79 | 310 | 10.0 | 20.0 | 0.00 | 0.00 | 0.00 | 45 | 1008.5 |
| 20260505190404 | 80 | 287 | 6.0 | 21.0 | 0.00 | 0.00 | 0.00 | 45 | 1008.5 |
| 20260505185859 | 80 | 335 | 8.0 | 19.0 | 0.00 | 0.00 | 0.00 | 46 | 1008.6 |
| 20260505185356 | 79 | 327 | 5.0 | 12.0 | 0.00 | 0.00 | 0.00 | 50 | 1008.4 |
| 20260505184852 | 78 | 257 | 4.0 | 17.0 | 0.00 | 0.00 | 0.00 | 50 | 1008.4 |
| 20260505184349 | 79 | 292 | 4.0 | 10.0 | 0.00 | 0.00 | 0.00 | 52 | 1008.4 |
| 20260505183847 | 78 | 280 | 2.0 | 16.0 | 0.00 | 0.00 | 0.00 | 50 | 1008.6 |
| 20260505183343 | 79 | 348 | 4.0 | 17.0 | 0.00 | 0.00 | 0.00 | 50 | 1008.7 |
| 20260505182840 | 79 | 3 | 7.0 | 14.0 | 0.00 | 0.00 | 0.00 | 49 | 1008.8 |
| 20260505182337 | 79 | 247 | 4.0 | 15.0 | 0.00 | 0.00 | 0.00 | 51 | 1008.8 |
| 20260505181834 | 79 | 294 | 5.0 | 17.0 | 0.00 | 0.00 | 0.00 | 49 | 1008.8 |
| 20260505181331 | 81 | 208 | 4.0 | 11.0 | 0.00 | 0.00 | 0.00 | 47 | 1008.5 |
| 20260505180827 | 80 | 290 | 5.0 | 16.0 | 0.00 | 0.00 | 0.00 | 47 | 1008.6 |
| 20260505180324 | 80 | 339 | 7.0 | 13.0 | 0.00 | 0.00 | 0.00 | 46 | 1008.7 |
| 20260505175820 | 81 | 327 | 2.0 | 10.0 | 0.00 | 0.00 | 0.00 | 47 | 1008.7 |
| 20260505175317 | 81 | 283 | 10.0 | 14.0 | 0.00 | 0.00 | 0.00 | 45 | 1008.9 |
| 20260505174814 | 80 | 9 | 5.0 | 14.0 | 0.00 | 0.00 | 0.00 | 46 | 1008.8 |
| 20260505174311 | 80 | 277 | 4.0 | 15.0 | 0.00 | 0.00 | 0.00 | 48 | 1008.9 |
| 20260505173807 | 81 | 315 | 5.0 | 15.0 | 0.00 | 0.00 | 0.00 | 46 | 1008.9 |
| 20260505173303 | 80 | 322 | 5.0 | 12.0 | 0.00 | 0.00 | 0.00 | 46 | 1008.9 |
| 20260505172800 | 80 | 313 | 10.0 | 17.0 | 0.00 | 0.00 | 0.00 | 48 | 1009.0 |
| 20260505172258 | 79 | 290 | 7.0 | 16.0 | 0.00 | 0.00 | 0.00 | 47 | 1009.2 |
| 20260505171752 | 78 | 260 | 7.0 | 15.0 | 0.00 | 0.00 | 0.00 | 48 | 1009.5 |
| 20260505171249 | 79 | 44 | 3.0 | 9.0 | 0.00 | 0.00 | 0.00 | 51 | 1009.2 |
| 20260505170746 | 78 | 346 | 1.0 | 11.0 | 0.00 | 0.00 | 0.00 | 49 | 1009.2 |
| 20260505170243 | 79 | 309 | 8.0 | 11.0 | 0.00 | 0.00 | 0.00 | 48 | 1009.3 |
| 20260505165738 | 78 | 16 | 4.0 | 10.0 | 0.00 | 0.00 | 0.00 | 49 | 1009.4 |
| 20260505165235 | 78 | 281 | 6.0 | 12.0 | 0.00 | 0.00 | 0.00 | 49 | 1009.5 |
| 20260505164730 | 78 | 312 | 6.0 | 9.0 | 0.00 | 0.00 | 0.00 | 50 | 1009.6 |
| 20260505164228 | 78 | 308 | 5.0 | 13.0 | 0.00 | 0.00 | 0.00 | 50 | 1009.7 |
| 20260505163726 | 77 | 323 | 3.0 | 11.0 | 0.00 | 0.00 | 0.00 | 52 | 1009.7 |
| 20260505163224 | 77 | 251 | 5.0 | 14.0 | 0.00 | 0.00 | 0.00 | 51 | 1009.9 |
| 20260505162721 | 77 | 358 | 2.0 | 8.0 | 0.00 | 0.00 | 0.00 | 53 | 1009.9 |
| 20260505162218 | 77 | 292 | 6.0 | 15.0 | 0.00 | 0.00 | 0.00 | 51 | 1010.1 |
| 20260505161715 | 76 | 248 | 3.0 | 10.0 | 0.00 | 0.00 | 0.00 | 53 | 1010.1 |
| 20260505161213 | 76 | 32 | 5.0 | 10.0 | 0.00 | 0.00 | 0.00 | 55 | 1010.4 |
| 20260505160710 | 76 | 307 | 4.0 | 8.0 | 0.00 | 0.00 | 0.00 | 55 | 1010.2 |
| 20260505160207 | 75 | 214 | 3.0 | 9.0 | 0.00 | 0.00 | 0.00 | 54 | 1010.3 |
| 20260505153146 | 74 | 285 | 3.0 | 12.0 | 0.00 | 0.00 | 0.00 | 55 | 1010.8 |
| 20260505152643 | 75 | 249 | 8.0 | 13.0 | 0.00 | 0.00 | 0.00 | 53 | 1010.6 |
| 20260505152139 | 76 | 213 | 4.0 | 8.0 | 0.00 | 0.00 | 0.00 | 54 | 1010.8 |
| 20260505151634 | 75 | 329 | 2.0 | 11.0 | 0.00 | 0.00 | 0.00 | 56 | 1011.0 |
| 20260505151132 | 75 | 288 | 3.0 | 9.0 | 0.00 | 0.00 | 0.00 | 55 | 1011.2 |
| 20260505150628 | 74 | 276 | 2.0 | 8.0 | 0.00 | 0.00 | 0.00 | 59 | 1011.0 |
| 20260505150125 | 74 | 315 | 3.0 | 8.0 | 0.00 | 0.00 | 0.00 | 56 | 1011.2 |
| 20260505140553 | 67 | 117 | 3.0 | 5.0 | 0.00 | 0.00 | 0.00 | 67 | 1011.5 |
| 20260505125007 | 59 | 292 | 2.0 | 6.0 | 0.00 | 0.00 | 0.00 | 84 | 1012.0 |
| 20260505124504 | 60 | 150 | 0.0 | 2.0 | 0.00 | 0.00 | 0.00 | 79 | 1011.7 |
| 20260505124000 | 60 | 355 | 0.0 | 2.0 | 0.00 | 0.00 | 0.00 | 79 | 1012.0 |
| 20260505123456 | 60 | 126 | 1.0 | 3.0 | 0.00 | 0.00 | 0.00 | 79 | 1011.9 |
| 20260505122952 | 60 | 238 | 1.0 | 6.0 | 0.00 | 0.00 | 0.00 | 78 | 1011.8 |
| 20260505122450 | 62 | 304 | 2.0 | 5.0 | 0.00 | 0.00 | 0.00 | 75 | 1011.9 |
| 20260505121947 | 59 | 153 | 0.0 | 4.0 | 0.00 | 0.00 | 0.00 | 78 | 1011.7 |
| 20260505121443 | 60 | 155 | 0.0 | 2.0 | 0.00 | 0.00 | 0.00 | 77 | 1012.0 |
| 20260505120939 | 61 | 143 | 2.0 | 3.0 | 0.00 | 0.00 | 0.00 | 74 | 1011.7 |
| 20260505120436 | 60 | 298 | 1.0 | 3.0 | 0.00 | 0.00 | 0.00 | 75 | 1011.8 |
| 20260505115935 | 58 | 266 | 1.0 | 2.0 | 0.00 | 0.00 | 0.00 | 79 | 1011.8 |
| 20260505115432 | 57 | 204 | 0.0 | 2.0 | 0.00 | 0.00 | 0.00 | 85 | 1011.8 |
| 20260505114930 | 54 | 149 | 1.0 | 2.0 | 0.00 | 0.00 | 0.00 | 94 | 1011.8 |
| 20260505114426 | 53 | 136 | 1.0 | 1.0 | 0.00 | 0.00 | 0.00 | 98 | 1011.9 |
| 20260505113922 | 51 | 150 | 0.0 | 2.0 | 0.00 | 0.00 | 0.00 | 99 | 1012.1 |
| 20260505113419 | 49 | 159 | 1.0 | 2.0 | 0.00 | 0.00 | 0.00 | 99 | 1011.7 |
| 20260505112915 | 48 | 196 | 0.0 | 2.0 | 0.00 | 0.00 | 0.00 | 99 | 1012.1 |
| 20260505112413 | 48 | 229 | 1.0 | 2.0 | 0.00 | 0.00 | 0.00 | 99 | 1012.0 |
| 20260505111908 | 47 | 183 | 1.0 | 2.0 | 0.00 | 0.00 | 0.00 | 99 | 1012.0 |
| 20260505111403 | 46 | 329 | 0.0 | 1.0 | 0.00 | 0.00 | 0.00 | 99 | 1012.0 |
| 20260505110900 | 45 | 222 | 0.0 | 2.0 | 0.00 | 0.00 | 0.00 | 99 | 1011.9 |
| 20260505110357 | 44 | 172 | 1.0 | 3.0 | 0.00 | 0.00 | 0.00 | 99 | 1011.8 |
| 20260505101827 | 42 | 40 | 0.0 | 2.0 | 0.00 | 0.00 | 0.00 | 99 | 1011.5 |
| 20260505101322 | 42 | 151 | 0.0 | 2.0 | 0.00 | 0.00 | 0.00 | 99 | 1011.4 |
| 20260505100818 | 42 | 184 | 1.0 | 3.0 | 0.00 | 0.00 | 0.00 | 99 | 1011.2 |
| 20260505100315 | 42 | 213 | 0.0 | 2.0 | 0.00 | 0.00 | 0.00 | 99 | 1011.3 |
| 20260505095811 | 42 | 70 | 0.0 | 2.0 | 0.00 | 0.00 | 0.00 | 99 | 1011.4 |
| 20260505095309 | 42 | 208 | 2.0 | 3.0 | 0.00 | 0.00 | 0.00 | 99 | 1011.3 |
| 20260505094804 | 42 | 210 | 0.0 | 2.0 | 0.00 | 0.00 | 0.00 | 99 | 1011.4 |
| 20260505094302 | 42 | 215 | 0.0 | 2.0 | 0.00 | 0.00 | 0.00 | 99 | 1011.4 |
| 20260505093757 | 42 | 246 | 0.0 | 2.0 | 0.00 | 0.00 | 0.00 | 99 | 1011.0 |
| 20260505093255 | 42 | 208 | 2.0 | 3.0 | 0.00 | 0.00 | 0.00 | 99 | 1011.4 |
| 20260505092751 | 42 | 144 | 0.0 | 2.0 | 0.00 | 0.00 | 0.00 | 99 | 1011.4 |
| 20260505092250 | 42 | 234 | 0.0 | 3.0 | 0.00 | 0.00 | 0.00 | 99 | 1011.5 |
| 20260505091747 | 42 | 170 | 0.0 | 2.0 | 0.00 | 0.00 | 0.00 | 99 | 1011.4 |
| 20260505091245 | 42 | 238 | 1.0 | 2.0 | 0.00 | 0.00 | 0.00 | 99 | 1011.3 |
| 20260505090742 | 42 | 213 | 0.0 | 2.0 | 0.00 | 0.00 | 0.00 | 99 | 1011.5 |
| 20260505090241 | 42 | 35 | 1.0 | 2.0 | 0.00 | 0.00 | 0.00 | 99 | 1011.4 |
| 20260505085738 | 43 | 278 | 1.0 | 2.0 | 0.00 | 0.00 | 0.00 | 99 | 1011.5 |
| 20260505085236 | 42 | 252 | 0.0 | 2.0 | 0.00 | 0.00 | 0.00 | 99 | 1011.3 |
| 20260505084733 | 42 | 195 | 2.0 | 2.0 | 0.00 | 0.00 | 0.00 | 99 | 1011.0 |
| 20260505084232 | 42 | 144 | 0.0 | 1.0 | 0.00 | 0.00 | 0.00 | 99 | 1011.2 |
| 20260505083728 | 42 | 189 | 0.0 | 1.0 | 0.00 | 0.00 | 0.00 | 99 | 1011.2 |
| 20260505083225 | 43 | 235 | 0.0 | 1.0 | 0.00 | 0.00 | 0.00 | 99 | 1011.3 |
| 20260505082721 | 43 | 189 | 0.0 | 1.0 | 0.00 | 0.00 | 0.00 | 99 | 1011.3 |
| 20260505082219 | 43 | 204 | 0.0 | 3.0 | 0.00 | 0.00 | 0.00 | 99 | 1011.4 |
| 20260505081714 | 43 | 245 | 1.0 | 2.0 | 0.00 | 0.00 | 0.00 | 99 | 1011.4 |
| 20260505081212 | 43 | 247 | 0.0 | 2.0 | 0.00 | 0.00 | 0.00 | 99 | 1011.5 |
| 20260505080709 | 43 | 47 | 0.0 | 2.0 | 0.00 | 0.00 | 0.00 | 99 | 1011.5 |
| 20260505080204 | 43 | 219 | 0.0 | 2.0 | 0.00 | 0.00 | 0.00 | 99 | 1011.4 |
| 20260505075700 | 43 | 202 | 0.0 | 2.0 | 0.00 | 0.00 | 0.00 | 99 | 1011.3 |
| 20260505075157 | 43 | 241 | 0.0 | 2.0 | 0.00 | 0.00 | 0.00 | 98 | 1011.4 |
| 20260505074654 | 44 | 257 | 0.0 | 3.0 | 0.00 | 0.00 | 0.00 | 98 | 1011.4 |
| 20260505074151 | 44 | 210 | 1.0 | 2.0 | 0.00 | 0.00 | 0.00 | 98 | 1011.5 |
| 20260505073649 | 44 | 268 | 0.0 | 2.0 | 0.00 | 0.00 | 0.00 | 98 | 1011.3 |
| 20260505073147 | 44 | 329 | 1.0 | 2.0 | 0.00 | 0.00 | 0.00 | 98 | 1011.5 |
| 20260505072642 | 44 | 162 | 0.0 | 1.0 | 0.00 | 0.00 | 0.00 | 98 | 1011.4 |
| 20260505072139 | 44 | 157 | 0.0 | 2.0 | 0.00 | 0.00 | 0.00 | 98 | 1011.4 |
| 20260505071635 | 44 | 264 | 0.0 | 2.0 | 0.00 | 0.00 | 0.00 | 98 | 1011.5 |
| 20260505071133 | 44 | 247 | 0.0 | 2.0 | 0.00 | 0.00 | 0.00 | 98 | 1011.6 |
| 20260505070629 | 44 | 24 | 0.0 | 1.0 | 0.00 | 0.00 | 0.00 | 98 | 1011.5 |
| 20260505070126 | 44 | 204 | 0.0 | 0.0 | 0.00 | 0.00 | 0.00 | 97 | 1011.6 |
| 20260505065622 | 44 | 215 | 0.0 | 2.0 | 0.00 | 0.00 | 0.00 | 97 | 1011.6 |
| 20260505065119 | 44 | 203 | 0.0 | 1.0 | 0.00 | 0.00 | 0.00 | 97 | 1011.6 |
| 20260505064616 | 44 | 189 | 0.0 | 1.0 | 0.00 | 0.00 | 0.00 | 96 | 1011.4 |
| 20260505064114 | 45 | 256 | 1.0 | 1.0 | 0.00 | 0.00 | 0.00 | 97 | 1011.5 |
| 20260505063611 | 45 | 241 | 0.0 | 2.0 | 0.00 | 0.00 | 0.00 | 96 | 1011.5 |
| 20260505063107 | 45 | 138 | 0.0 | 2.0 | 0.00 | 0.00 | 0.00 | 96 | 1011.5 |
| 20260505062603 | 45 | 147 | 2.0 | 2.0 | 0.00 | 0.00 | 0.00 | 96 | 1011.6 |
| 20260505062101 | 45 | 205 | 1.0 | 2.0 | 0.00 | 0.00 | 0.00 | 95 | 1011.6 |
| 20260505061558 | 46 | 235 | 0.0 | 2.0 | 0.00 | 0.00 | 0.00 | 95 | 1011.6 |
| 20260505061056 | 46 | 221 | 0.0 | 1.0 | 0.00 | 0.00 | 0.00 | 94 | 1011.5 |
| 20260505060553 | 46 | 218 | 0.0 | 2.0 | 0.00 | 0.00 | 0.00 | 94 | 1011.6 |
| 20260505060050 | 46 | 302 | 0.0 | 1.0 | 0.00 | 0.00 | 0.00 | 94 | 1011.6 |
| 20260505055545 | 47 | 250 | 0.0 | 0.0 | 0.00 | 0.00 | 0.00 | 94 | 1011.8 |
| 20260505055042 | 47 | 185 | 1.0 | 2.0 | 0.00 | 0.00 | 0.00 | 93 | 1011.9 |
| 20260505054539 | 47 | 107 | 1.0 | 2.0 | 0.00 | 0.00 | 0.00 | 93 | 1011.9 |
| 20260505054038 | 47 | 175 | 0.0 | 2.0 | 0.00 | 0.00 | 0.00 | 93 | 1011.9 |
| 20260505053534 | 47 | 151 | 1.0 | 2.0 | 0.00 | 0.00 | 0.00 | 92 | 1011.9 |
| 20260505053031 | 48 | 150 | 0.0 | 3.0 | 0.00 | 0.00 | 0.00 | 92 | 1011.8 |
| 20260505052528 | 48 | 201 | 2.0 | 3.0 | 0.00 | 0.00 | 0.00 | 92 | 1011.9 |
| 20260505052025 | 48 | 166 | 1.0 | 2.0 | 0.00 | 0.00 | 0.00 | 92 | 1011.9 |
| 20260505051522 | 48 | 133 | 0.0 | 2.0 | 0.00 | 0.00 | 0.00 | 91 | 1011.8 |
| 20260505051020 | 48 | 198 | 1.0 | 2.0 | 0.00 | 0.00 | 0.00 | 91 | 1012.0 |
| 20260505050518 | 48 | 154 | 2.0 | 2.0 | 0.00 | 0.00 | 0.00 | 90 | 1011.9 |
| 20260505041440 | 49 | 131 | 0.0 | 2.0 | 0.00 | 0.00 | 0.00 | 87 | 1012.3 |